Regional Weather Roundup
Issued by NWS

Home | Current Version | Previous Version | Text Only | Print | Product List | Glossary On
Versions: 1 2 3 4 5 6 7 8 9 10 11 12 13 14 15 16 17 18 19 20 21 22 23 24 25 26 27 28 29 30 31 32 33 34 35 36 37 38 39 40 41 42 43 44 45 46 47 48 49 50
000
ASUS45 KBOU 250210
RWRCO

WEATHER ROUNDUP FOR COLORADO
NATIONAL WEATHER SERVICE DENVER/BOULDER CO
700 PM MST FRI NOV 24 2017

NOTE: "FAIR" INDICATES FEW OR NO CLOUDS BELOW 12000 FEET WITH NO
SIGNIFICANT WEATHER AND/OR OBSTRUCTIONS TO VISIBILITY.

COZ001>005-013-030-031-250300-
...NORTHWEST COLORADO...

CITY           SKY/WX    TMP DP  RH WIND       PRES   REMARKS
CRAIG          MOCLDY    40  30  67 CALM      30.13R
HAYDEN         FAIR      41  29  62 SW7       30.15R
MEEKER         FAIR      44  30  57 W3        30.13R
RABBIT EARS PA FAIR      30  28  93 W12G22    30.20S WCI  21
STEAMBOAT SPGS CLOUDY    38  33  82 W3        30.14R
WALDEN         FAIR      32  27  80 SE6       30.15S WCI  26
$$

COZ006>008-011-250300-
...WEST CENTRAL VALLEYS...

CITY           SKY/WX    TMP DP  RH WIND       PRES   REMARKS
GRAND JUNCTION FAIR      45  29  53 CALM      30.06R
MONTROSE       FAIR      47  30  51 N7        30.13R
EAGLE          FAIR      45  28  51 NE5       30.15R
RIFLE          FAIR      47  31  53 CALM      30.09R
DELTA          FAIR      51  32  47 N7        30.08R
NUCLA          FAIR      55  23  28 NW3       30.13R
$$

COZ017>023-064>068-250300-
...SOUTHWEST COLORADO...

CITY           SKY/WX    TMP DP  RH WIND       PRES   REMARKS
DURANGO        FAIR      49  25  39 W5        30.10R
CORTEZ         FAIR      42  23  46 E9        30.11R
PAGOSA SPRINGS FAIR      45  25  45 NE3       30.16R
TELLURIDE      FAIR      44  25  47 CALM      30.26R
WOLF CREEK PAS NOT AVBL
$$

COZ009-010-012-014-032>034-037-058>063-250300-
...CENTRAL COLORADO...

CITY           SKY/WX    TMP DP  RH WIND       PRES   REMARKS
ASPEN          FAIR      42  28  57 S7        30.17R
BUENA VISTA    FAIR      46  23  40 NW5G16    30.14R
COPPER MTN     FAIR      34  23  64 MISG      30.29R
BERTHOUD PASS  CLOUDY    23  12  63 NW24G36   30.26S WCI   7
COTTONWOOD PAS FAIR      48  21  34 W10G21    30.21R
GUNNISON       NOT AVBL
KREMMLING      FAIR      41  32  70 CALM      30.17S
LEADVILLE      FAIR      35  21  56 N3        30.22R
MONARCH PASS   FAIR      32  16  51 W26G32    30.41R WCI  18
SALIDA         FAIR      53  17  24 W14       30.19R
SUNLIGHT       FAIR      32  21  64 W9G16     30.31R WCI  24
WILKERSON PASS FAIR      32  19  59 W10G17    30.26R WCI  24
$$

COZ069>075-250300-
...SAN LUIS VALLEY/SANGRE DE CRISTO MOUNTAINS...

CITY           SKY/WX    TMP DP  RH WIND       PRES   REMARKS
ALAMOSA        FAIR      45  22  40 N9        30.12R
DEL NORTE      FAIR      50  22  33 NW12G18   30.15R
LA VETA PASS   FAIR      43  18  36 W14G26      N/A
SAGUACHE       FAIR      45  23  42 NW17      30.13R
$$

COZ035-036-038>040-250300-
...NORTHERN COLORADO FRONT RANGE...

CITY           SKY/WX    TMP DP  RH WIND       PRES   REMARKS
DENVER INTL AP FAIR      45  33  63 S10       30.03R
DMNS CITY PARK   N/A     52  32  46 SE10      30.04S
AURORA         PTCLDY    45  34  65 SE10      30.05R
FRONT RANGE AP MOCLDY    46  36  66 E8        30.05R
ERIE MUNI ARPT FAIR      50  31  47 CALM      30.06R
BOULDER MUN AP FAIR      52  32  46 CALM      30.01R
CENTENNIAL     FAIR      48  34  58 E6        30.06R
BROOMFIELD     PTCLDY    50  32  50 SE13      30.04R
FORT COLLINS   FAIR      47  33  58 NE8       30.01S
LONGMONT       FAIR      48  32  53 CALM      30.02R
$$

COZ041-046-047-076>085-087-088-250300-
...PIKES PEAK/PALMER DIVIDE AND SOUTHERN FOOTHILLS...

CITY           SKY/WX    TMP DP  RH WIND       PRES   REMARKS
COLO. SPRINGS  FAIR      48  32  53 N15       30.07R
A. F. ACADEMY  FAIR      46  31  54 N10       30.08R
SCHRIEVER AFB  MOCLDY    46  31  56 NE14      30.06R
CHEYENNE MTN   FAIR      51  27  40 NW17      30.03R
ELLICOTT         N/A    N/A N/A N/A E13       30.05R
FALCON         FAIR      43  31  62 N8        30.10R
FORT CARSON    CLOUDY    50  32  49 E7        30.07R
LIMON          MOCLDY    44  33  65 CALM      30.04R
MONUMENT HILL  MOCLDY    41  32  70 SE3       30.11R
CANON CITY     FAIR      55  30  38 E6G24     30.03R
WALSENBURG     FAIR      63  16  16 N14       30.05R
TRINIDAD       FAIR      56  25  30 NE6       30.03R
$$

COZ042>045-048>051-090-091-250300-
...NORTHEAST COLORADO...

CITY           SKY/WX    TMP DP  RH WIND       PRES   REMARKS
GREELEY ARPT   FAIR      48  35  60 NE10      30.02S
AKRON          FAIR      41  31  67 N7        30.02R
BURLINGTON     MOCLDY    50  35  56 N7        30.01R
WRAY           NOT AVBL
YUMA           FAIR      45  30  57 N8        30.02R
STERLING       FAIR      41  28  60 CALM      30.00R
HOLYOKE        FAIR      43  27  52 W7        30.01R
FORT MORGAN    FAIR      42  32  67 N9        30.03S
$$

COZ086-089-092>099-250300-
...SOUTHEAST COLORADO...

CITY           SKY/WX    TMP DP  RH WIND       PRES   REMARKS
PUEBLO         MOCLDY    59  33  37 NE12      30.02R
LA JUNTA       FAIR      57  34  41 NE17G26   29.98R
LAMAR          FAIR      61  33  35 NE18G29   29.94R
SPRINGFIELD      N/A     57  32  38 NE24G33   29.95R
$$



USA.gov is the U.S. government's official web portal to all federal, state and local government web resources and services.